Kosmos-1234

operational
NORAD ID: 12113 Int'l Des: 1980-102 Owner: GUKOSR Country: SU
LEOCIRCULAR

关于 Kosmos-1234

正在加载描述...

实时位置

正在加载3D地球...

即将过境

高度历史

Altitude vs Time

uPlot chart will show altitude changes over time

两行轨道根数

1 12113U 80102G 26074.27608323 -.00000004 00000-0 76852-4 0 9996
2 12113 73.9931 134.1451 0035585 217.3355 209.6026 12.56711565 74525
Epoch: Mar 15, 2026 • Age: 8 hours

当前状态

高度 1424.5 km
速度 7.16 km/s
星下点 -41.77°S, 71.28°W
发射日期 Dec 23, 1980
运行时间 45.2 years
类型 other

技术详情

分类 Payload
质量 60.00 kg
干质量 60.00 kg
总质量 60.00 kg
长度 0.80 m
直径 0.80 m
跨度 0.80 m
形状 Poly
制造商 NPOPM
平台类型 Strela-1 11F625
阶段状态 In Orbit
所有者/国家 GUKOSR/SU

大型星座

Loading constellations...